Location: ???????
(55.9142°N, 37.8256°E)
Time: 15:01:54
(UTC+00:00)

Cosmos 1766 Rocket - Pass Details

Date: 14 April 2024
Orbit: 602 x 629 km, 82.5° (Epoch: 18 May)

Event Time Altitude Azimuth Distance (km) Brightness Sun altitude
Rises 00:01:03 0° 341° (NNW) 2,871 7.4 -17.4°
Reaches altitude 10° 00:03:29 10° 331° (NNW) 1,961 6.4 -17.2°
Maximum altitude 00:07:13 29° 271° (W) 1,116 4.5 -16.8°
Enters shadow 00:07:53 28° 254° (WSW) 1,152 4.5 -16.8°
